,,,PA_Meas_PMT16A,,PR_Meas_QMR101_102,,RH_Meas_QMH101,,SR_Meas_QMS101,,TA_Meas_QMH101,,GenWind,,GenWind,
date,time,status,PA,status,PR,status,RH,status,SR,status,TA,status,DirAvg,status,SpdAvg,
2009-06-29, 00:00:04,VALID,1000.27,VALID,0,VALID,92.8372,VALID,0,VALID,22.4933,VALID,53,VALID,0.478516,
2009-06-29, 00:01:04,VALID,1000.25,VALID,0,VALID,93.0127,VALID,0,VALID,22.4526,VALID,53,VALID,0.699609,
2009-06-29, 00:02:04,VALID,1000.22,VALID,0,VALID,93.1729,VALID,0,VALID,22.4543,VALID,52,VALID,0.662109,
2009-06-29, 00:03:04,VALID,1000.21,VALID,0,VALID,93.1729,VALID,0,VALID,22.4136,VALID,46,VALID,0.325,
2009-06-29, 00:04:04,VALID,1000.24,VALID,0,VALID,93.2568,VALID,0,VALID,22.3941,VALID,46,VALID,0.408984,
2009-06-29, 00:05:04,VALID,1000.23,VALID,0,VALID,93.3408,VALID,0,VALID,22.3941,VALID,46,VALID,0.18125,
2009-06-29, 00:06:04,VALID,1000.25,VALID,0,VALID,93.3637,VALID,0,VALID,22.3746,VALID,46,VALID,0.248828,
2009-06-29, 00:07:04,VALID,1000.25,VALID,0,VALID,93.4476,VALID,0,VALID,22.3958,VALID,66,VALID,0.848828,
2009-06-29, 00:08:04,VALID,1000.25,VALID,0,VALID,93.6078,VALID,0,VALID,22.3958,VALID,79,VALID,1.73984,
2009-06-29, 00:09:04,VALID,1000.24,VALID,0,VALID,93.6536,VALID,0,VALID,22.3941,VALID,89,VALID,1.88203,
2009-06-29, 00:10:04,VALID,1000.24,VALID,0,VALID,93.6536,VALID,0,VALID,22.4153,VALID,91,VALID,1.3043,
2009-06-29, 00:11:04,VALID,1000.2,VALID,0,VALID,93.646,VALID,0,VALID,22.3958,VALID,79,VALID,0.905078,
2009-06-29, 00:12:04,VALID,1000.18,VALID,0,VALID,93.6078,VALID,0,VALID,22.3941,VALID,67,VALID,0.711719,
2009-06-29, 00:13:04,VALID,1000.14,VALID,0,VALID,93.5773,VALID,0,VALID,22.3958,VALID,61,VALID,0.498047,
2009-06-29, 00:14:04,VALID,1000.16,VALID,0,VALID,93.4934,VALID,0,VALID,22.3958,VALID,61,VALID,0.0773437,
2009-06-29, 00:15:04,VALID,1000.19,VALID,0,VALID,93.4018,VALID,0,VALID,22.3551,VALID,61,VALID,0.0796875,
2009-06-29, 00:16:04,VALID,1000.17,VALID,0,VALID,93.4171,VALID,0,VALID,22.3763,VALID,61,VALID,0,
2009-06-29, 00:17:04,VALID,1000.16,VALID,0,VALID,93.4781,VALID,0,VALID,22.3551,VALID,50,VALID,0.111328,
2009-06-29, 00:18:04,VALID,1000.18,VALID,0,VALID,93.4628,VALID,0,VALID,22.3568,VALID,46,VALID,0.396484,
2009-06-29, 00:19:04,VALID,1000.18,VALID,0,VALID,93.4934,VALID,0,VALID,22.3356,VALID,46,VALID,0.521094,
2009-06-29, 00:20:04,VALID,1000.2,VALID,0,VALID,93.6154,VALID,0,VALID,22.3356,VALID,46,VALID,0.475781,
2009-06-29, 00:21:04,VALID,1000.2,VALID,0,VALID,93.6154,VALID,0,VALID,22.3356,VALID,46,VALID,0.189063,
2009-06-29, 00:22:04,VALID,1000.17,VALID,0,VALID,93.5468,VALID,0,VALID,22.3568,VALID,328,VALID,0.755859,
2009-06-29, 00:23:04,VALID,1000.23,VALID,0,VALID,93.6536,VALID,0,VALID,22.3551,VALID,273,VALID,1.1043,
2009-06-29, 00:24:04,VALID,1000.19,VALID,0,VALID,93.6917,VALID,0,VALID,22.3941,VALID,260,VALID,0.898047,
2009-06-29, 00:25:04,VALID,1000.19,VALID,0,VALID,93.7985,VALID,0,VALID,22.4331,VALID,273,VALID,1.01758,
2009-06-29, 00:26:04,VALID,1000.2,VALID,0,VALID,93.7604,VALID,0,VALID,22.4543,VALID,298,VALID,1.01563,
2009-06-29, 00:27:04,VALID,1000.19,VALID,0,VALID,93.6994,VALID,0,VALID,22.4526,VALID,319,VALID,0.706641,
2009-06-29, 00:28:04,VALID,1000.19,VALID,0,VALID,93.6078,VALID,0,VALID,22.4526,VALID,338,VALID,0.546875,
2009-06-29, 00:29:04,VALID,1000.19,VALID,0,VALID,93.6383,VALID,0,VALID,22.4738,VALID,346,VALID,0.593359,
2009-06-29, 00:30:04,VALID,1000.21,VALID,0,VALID,93.562,VALID,0,VALID,22.4526,VALID,354,VALID,0.346484,
2009-06-29, 00:31:04,VALID,1000.16,VALID,0,VALID,93.5239,VALID,0,VALID,22.4543,VALID,354,VALID,0.30625,
2009-06-29, 00:32:04,VALID,1000.13,VALID,0,VALID,93.4628,VALID,0,VALID,22.4136,VALID,354,VALID,0.232031,
2009-06-29, 00:33:04,VALID,1000.12,VALID,0,VALID,93.4476,VALID,0,VALID,22.4153,VALID,354,VALID,0,
2009-06-29, 00:34:04,VALID,1000.09,VALID,0,VALID,93.4171,VALID,0,VALID,22.3746,VALID,354,VALID,0,
2009-06-29, 00:35:04,VALID,1000.02,VALID,0,VALID,93.4857,VALID,0,VALID,22.3746,VALID,354,VALID,0.211719,
2009-06-29, 00:36:04,VALID,1000.01,VALID,0,VALID,93.5697,VALID,0,VALID,22.3746,VALID,354,VALID,0.38125,
2009-06-29, 00:37:04,VALID,999.974,VALID,0,VALID,93.6765,VALID,0,VALID,22.3941,VALID,354,VALID,0.445703,
2009-06-29, 00:38:04,VALID,999.893,VALID,0,VALID,93.7451,VALID,0,VALID,22.4331,VALID,245,VALID,0.655078,
2009-06-29, 00:39:04,VALID,999.875,VALID,0,VALID,93.7604,VALID,0,VALID,22.4526,VALID,246,VALID,0.497656,
2009-06-29, 00:40:04,VALID,999.835,VALID,0,VALID,93.7299,VALID,0,VALID,22.4721,VALID,289,VALID,0.551172,
2009-06-29, 00:41:04,VALID,999.809,VALID,0,VALID,93.6307,VALID,0,VALID,22.4543,VALID,290,VALID,0.114063,
2009-06-29, 00:42:04,VALID,999.843,VALID,0,VALID,93.5773,VALID,0,VALID,22.4331,VALID,290,VALID,0.04375,
2009-06-29, 00:43:04,VALID,999.843,VALID,0,VALID,93.4781,VALID,0,VALID,22.4153,VALID,290,VALID,0,
2009-06-29, 00:44:04,VALID,999.874,VALID,0,VALID,93.5773,VALID,0,VALID,22.3941,VALID,303,VALID,0.621875,
2009-06-29, 00:45:04,VALID,999.87,VALID,0,VALID,93.3179,VALID,0,VALID,22.3356,VALID,342,VALID,1.02891,
2009-06-29, 00:46:04,VALID,999.929,VALID,0,VALID,93.234,VALID,0,VALID,22.2983,VALID,342,VALID,0.463281,
2009-06-29, 00:47:04,VALID,999.924,VALID,0,VALID,92.9593,VALID,0,VALID,22.199,VALID,69,VALID,0.718359,
2009-06-29, 00:48:04,VALID,999.945,VALID,0,VALID,93.6536,VALID,0,VALID,22.16,VALID,72,VALID,0.599219,
2009-06-29, 00:49:04,VALID,999.892,VALID,0,VALID,94.0351,VALID,0,VALID,22.2592,VALID,11,VALID,1.06172,
2009-06-29, 00:50:04,VALID,999.877,VALID,0,VALID,94.0122,VALID,0,VALID,22.2576,VALID,3,VALID,0.728125,
2009-06-29, 00:51:04,VALID,999.898,VALID,0,VALID,93.6002,VALID,0,VALID,22.199,VALID,90,VALID,0.975391,
2009-06-29, 00:52:04,VALID,999.886,VALID,0,VALID,93.9359,VALID,0,VALID,22.199,VALID,74,VALID,0.924609,
2009-06-29, 00:53:04,VALID,999.861,VALID,0,VALID,93.8214,VALID,0,VALID,22.199,VALID,51,VALID,0.728906,
2009-06-29, 00:54:04,VALID,999.885,VALID,0,VALID,93.7985,VALID,0,VALID,22.16,VALID,109,VALID,1.88164,
2009-06-29, 00:55:04,VALID,999.855,VALID,0,VALID,94.0274,VALID,0,VALID,22.199,VALID,91,VALID,1.90625,
2009-06-29, 00:56:04,VALID,999.836,VALID,0,VALID,94.0961,VALID,0,VALID,22.2381,VALID,77,VALID,1.62539,
2009-06-29, 00:57:04,VALID,999.835,VALID,0,VALID,94.119,VALID,0,VALID,22.2381,VALID,81,VALID,1.46914,
2009-06-29, 00:58:04,VALID,999.852,VALID,0,VALID,94.1266,VALID,0,VALID,22.2576,VALID,83,VALID,1.18633,
2009-06-29, 00:59:04,VALID,999.858,VALID,0,VALID,94.0961,VALID,0,VALID,22.2771,VALID,82,VALID,0.776172,
2009-06-29, 01:00:04,VALID,999.803,VALID,0,VALID,94.0122,VALID,0,VALID,22.2788,VALID,63,VALID,0.811328,
2009-06-29, 01:01:04,VALID,999.783,VALID,0,VALID,93.9664,VALID,0,VALID,22.2576,VALID,63,VALID,0.973828,
2009-06-29, 01:02:04,VALID,999.8,VALID,0,VALID,93.9359,VALID,0,VALID,22.2576,VALID,47,VALID,0.485938,
2009-06-29, 01:03:04,VALID,999.759,VALID,0,VALID,93.8977,VALID,0,VALID,22.2186,VALID,44,VALID,0.539453,
2009-06-29, 01:04:04,VALID,999.793,VALID,0,VALID,93.8062,VALID,0,VALID,22.2186,VALID,38,VALID,0.607422,
2009-06-29, 01:05:04,VALID,999.79,VALID,0,VALID,93.7451,VALID,0,VALID,22.1795,VALID,38,VALID,0.701563,
2009-06-29, 01:06:04,VALID,999.755,VALID,0,VALID,93.8214,VALID,0,VALID,22.16,VALID,32,VALID,0.714844,
2009-06-29, 01:07:04,VALID,999.698,VALID,0,VALID,93.913,VALID,0,VALID,22.2007,VALID,12,VALID,0.992578,
2009-06-29, 01:08:04,VALID,999.695,VALID,0,VALID,93.9511,VALID,0,VALID,22.1795,VALID,9,VALID,0.946484,
2009-06-29, 01:09:04,VALID,999.697,VALID,0,VALID,93.9435,VALID,0,VALID,22.16,VALID,331,VALID,0.843359,
2009-06-29, 01:10:04,VALID,999.673,VALID,0,VALID,93.8748,VALID,0,VALID,22.121,VALID,313,VALID,0.744922,
2009-06-29, 01:11:04,VALID,999.64,VALID,0,VALID,93.9969,VALID,0,VALID,22.1617,VALID,314,VALID,0.676562,
2009-06-29, 01:12:04,VALID,999.619,VALID,0,VALID,94.0808,VALID,0,VALID,22.16,VALID,324,VALID,0.724219,
2009-06-29, 01:13:04,VALID,999.602,VALID,0,VALID,94.1648,VALID,0,VALID,22.1812,VALID,327,VALID,0.604297,
2009-06-29, 01:14:04,VALID,999.595,VALID,0,VALID,94.1419,VALID,0,VALID,22.16,VALID,346,VALID,0.703125,
2009-06-29, 01:15:04,VALID,999.569,VALID,0,VALID,94.0427,VALID,0,VALID,22.1405,VALID,30,VALID,0.950391,
2009-06-29, 01:16:04,VALID,999.542,VALID,0,VALID,94.0503,VALID,0,VALID,22.121,VALID,32,VALID,1.13203,
2009-06-29, 01:17:04,VALID,999.516,VALID,0,VALID,94.0122,VALID,0,VALID,22.1015,VALID,44,VALID,0.969531,
2009-06-29, 01:18:04,VALID,999.514,VALID,0,VALID,94.0961,VALID,0,VALID,22.082,VALID,49,VALID,1.00781,
2009-06-29, 01:19:04,VALID,999.522,VALID,0,VALID,94.1724,VALID,0,VALID,22.1015,VALID,60,VALID,1.10156,
2009-06-29, 01:20:04,VALID,999.49,VALID,0,VALID,94.18,VALID,0,VALID,22.121,VALID,59,VALID,0.925,
2009-06-29, 01:21:04,VALID,999.491,VALID,0,VALID,94.1877,VALID,0,VALID,22.1227,VALID,57,VALID,0.618359,
2009-06-29, 01:22:04,VALID,999.489,VALID,0,VALID,94.1266,VALID,0,VALID,22.1227,VALID,45,VALID,0.408594,
2009-06-29, 01:23:04,VALID,999.496,VALID,0,VALID,94.1648,VALID,0,VALID,22.1015,VALID,339,VALID,0.695703,
2009-06-29, 01:24:04,VALID,999.483,VALID,0,VALID,94.1877,VALID,0,VALID,22.1422,VALID,311,VALID,0.688672,
2009-06-29, 01:25:04,VALID,999.482,VALID,0,VALID,94.2105,VALID,0,VALID,22.1422,VALID,304,VALID,0.507031,
2009-06-29, 01:26:04,VALID,999.452,VALID,0,VALID,94.2411,VALID,0,VALID,22.1405,VALID,302,VALID,0.428516,
2009-06-29, 01:27:04,VALID,999.459,VALID,0,VALID,94.2487,VALID,0,VALID,22.16,VALID,302,VALID,0.417969,
2009-06-29, 01:28:04,VALID,999.427,VALID,0,VALID,94.2563,VALID,0,VALID,22.2007,VALID,291,VALID,0.484766,
2009-06-29, 01:29:04,VALID,999.392,VALID,0,VALID,94.2334,VALID,0,VALID,22.1812,VALID,291,VALID,0.510938,
2009-06-29, 01:30:04,VALID,999.357,VALID,0,VALID,94.2105,VALID,0,VALID,22.16,VALID,291,VALID,0.333984,
2009-06-29, 01:31:04,VALID,999.391,VALID,0,VALID,94.2182,VALID,0,VALID,22.1795,VALID,291,VALID,0.202344,
2009-06-29, 01:32:04,VALID,999.377,VALID,0,VALID,94.2258,VALID,0,VALID,22.1795,VALID,291,VALID,0.141797,
2009-06-29, 01:33:04,VALID,999.357,VALID,0,VALID,94.2182,VALID,0,VALID,22.1795,VALID,291,VALID,0.0707031,
2009-06-29, 01:34:04,VALID,999.319,VALID,0,VALID,94.2029,VALID,0,VALID,22.1795,VALID,291,VALID,0.165625,
2009-06-29, 01:35:04,VALID,999.332,VALID,0,VALID,94.2105,VALID,0,VALID,22.1795,VALID,291,VALID,0.0886719,
2009-06-29, 01:36:04,VALID,999.314,VALID,0,VALID,94.1953,VALID,0,VALID,22.1795,VALID,291,VALID,0.0953125,
2009-06-29, 01:37:04,VALID,999.301,VALID,0,VALID,94.2029,VALID,0,VALID,22.16,VALID,291,VALID,0.123438,
2009-06-29, 01:38:04,VALID,999.298,VALID,0,VALID,94.2029,VALID,0,VALID,22.1795,VALID,291,VALID,0.405078,
2009-06-29, 01:39:04,VALID,999.322,VALID,0,VALID,94.18,VALID,0,VALID,22.1795,VALID,291,VALID,0.474219,
2009-06-29, 01:40:04,VALID,999.346,VALID,0,VALID,94.1877,VALID,0,VALID,22.1795,VALID,291,VALID,0.500781,
2009-06-29, 01:41:04,VALID,999.347,VALID,0,VALID,94.1724,VALID,0,VALID,22.1795,VALID,291,VALID,0.405859,
2009-06-29, 01:42:04,VALID,999.372,VALID,0,VALID,94.119,VALID,0,VALID,22.16,VALID,176,VALID,0.644531,
2009-06-29, 01:43:04,VALID,999.408,VALID,0,VALID,94.2258,VALID,0,VALID,22.2007,VALID,148,VALID,1.21484,
2009-06-29, 01:44:04,VALID,999.396,VALID,0,VALID,94.2182,VALID,0,VALID,22.1795,VALID,137,VALID,1.36289,
2009-06-29, 01:45:04,VALID,999.403,VALID,0,VALID,94.18,VALID,0,VALID,22.199,VALID,137,VALID,1.08008,
2009-06-29, 01:46:04,VALID,999.406,VALID,0,VALID,94.1571,VALID,0,VALID,22.2592,VALID,137,VALID,0.972266,
2009-06-29, 01:47:04,VALID,999.369,VALID,0,VALID,94.119,VALID,0,VALID,22.2381,VALID,133,VALID,0.714063,
2009-06-29, 01:48:04,VALID,999.342,VALID,0,VALID,94.1114,VALID,0,VALID,22.2788,VALID,133,VALID,0.392578,
2009-06-29, 01:49:04,VALID,999.34,VALID,0,VALID,94.1114,VALID,0,VALID,22.2983,VALID,133,VALID,0.438672,
2009-06-29, 01:50:04,VALID,999.332,VALID,0,VALID,94.0503,VALID,0,VALID,22.2966,VALID,133,VALID,0.527344,
2009-06-29, 01:51:04,VALID,999.332,VALID,0,VALID,93.9969,VALID,0,VALID,22.3161,VALID,133,VALID,0.294141,
2009-06-29, 01:52:04,VALID,999.309,VALID,0,VALID,93.974,VALID,0,VALID,22.3373,VALID,133,VALID,0.299609,
2009-06-29, 01:53:04,VALID,999.302,VALID,0,VALID,93.8291,VALID,0,VALID,22.3373,VALID,117,VALID,0.401172,
2009-06-29, 01:54:04,VALID,999.29,VALID,0,VALID,93.8062,VALID,0,VALID,22.2966,VALID,64,VALID,0.5875,
2009-06-29, 01:55:04,VALID,999.289,VALID,0,VALID,93.768,VALID,0,VALID,22.3161,VALID,64,VALID,0.619141,
2009-06-29, 01:56:04,VALID,999.308,VALID,0,VALID,93.7451,VALID,0,VALID,22.3161,VALID,65,VALID,0.61875,
2009-06-29, 01:57:04,VALID,999.25,VALID,0,VALID,93.8291,VALID,0,VALID,22.3568,VALID,58,VALID,0.741797,
2009-06-29, 01:58:04,VALID,999.233,VALID,0,VALID,93.7757,VALID,0,VALID,22.3551,VALID,45,VALID,0.881641,
2009-06-29, 01:59:04,VALID,999.188,VALID,0,VALID,93.356,VALID,0,VALID,22.3161,VALID,27,VALID,1.11758,
2009-06-29, 02:00:04,VALID,999.175,VALID,0,VALID,93.4476,VALID,0,VALID,22.3178,VALID,27,VALID,0.978125,
2009-06-29, 02:01:04,VALID,999.187,VALID,0,VALID,93.4552,VALID,0,VALID,22.2771,VALID,16,VALID,0.765234,
2009-06-29, 02:02:04,VALID,999.143,VALID,0,VALID,93.4857,VALID,0,VALID,22.2983,VALID,16,VALID,0.505078,
2009-06-29, 02:03:04,VALID,999.159,VALID,0,VALID,93.4934,VALID,0,VALID,22.2771,VALID,13,VALID,0.253906,
2009-06-29, 02:04:04,VALID,999.107,VALID,0,VALID,93.4857,VALID,0,VALID,22.2576,VALID,13,VALID,0.155469,
2009-06-29, 02:05:04,VALID,999.075,VALID,0,VALID,93.4934,VALID,0,VALID,22.2788,VALID,13,VALID,0.15,
2009-06-29, 02:06:04,VALID,999.063,VALID,0,VALID,93.4247,VALID,0,VALID,22.2381,VALID,13,VALID,0.197266,
2009-06-29, 02:07:04,VALID,999.029,VALID,0,VALID,93.3713,VALID,0,VALID,22.199,VALID,13,VALID,0.136328,
2009-06-29, 02:08:04,VALID,999.011,VALID,0,VALID,93.3331,VALID,0,VALID,22.1795,VALID,13,VALID,0.215625,
2009-06-29, 02:09:04,VALID,999.03,VALID,0,VALID,93.4552,VALID,0,VALID,22.1405,VALID,13,VALID,0.428125,
2009-06-29, 02:10:04,VALID,998.998,VALID,0,VALID,93.6612,VALID,0,VALID,22.16,VALID,13,VALID,0.486328,
2009-06-29, 02:11:04,VALID,998.997,VALID,0,VALID,93.6383,VALID,0,VALID,22.1617,VALID,13,VALID,0.633594,
2009-06-29, 02:12:04,VALID,998.999,VALID,0,VALID,93.6765,VALID,0,VALID,22.1617,VALID,41,VALID,0.7625,
2009-06-29, 02:13:04,VALID,998.962,VALID,0,VALID,93.5773,VALID,0,VALID,22.1405,VALID,41,VALID,0.557031,
2009-06-29, 02:14:04,VALID,999.024,VALID,0,VALID,93.4552,VALID,0,VALID,22.1015,VALID,47,VALID,0.568359,
2009-06-29, 02:15:04,VALID,999.03,VALID,0,VALID,93.646,VALID,0,VALID,22.121,VALID,111,VALID,0.651563,
2009-06-29, 02:16:04,VALID,999.017,VALID,0,VALID,93.6765,VALID,0,VALID,22.1227,VALID,111,VALID,0.35625,
2009-06-29, 02:17:04,VALID,999.003,VALID,0,VALID,93.6688,VALID,0,VALID,22.1227,VALID,111,VALID,0.0117188,
2009-06-29, 02:18:04,VALID,999.029,VALID,0,VALID,93.7146,VALID,0,VALID,22.1227,VALID,111,VALID,0,
2009-06-29, 02:19:04,VALID,998.992,VALID,0,VALID,93.7528,VALID,0,VALID,22.1015,VALID,111,VALID,0,
2009-06-29, 02:20:04,VALID,999.001,VALID,0,VALID,93.8367,VALID,0,VALID,22.121,VALID,111,VALID,0,
2009-06-29, 02:21:04,VALID,998.973,VALID,0,VALID,93.8291,VALID,0,VALID,22.1015,VALID,111,VALID,0.0570313,
2009-06-29, 02:22:04,VALID,998.932,VALID,0,VALID,93.8291,VALID,0,VALID,22.121,VALID,110,VALID,0.498047,
2009-06-29, 02:23:04,VALID,998.919,VALID,0,VALID,93.8825,VALID,0,VALID,22.1227,VALID,58,VALID,0.729688,
2009-06-29, 02:24:04,VALID,998.894,VALID,0,VALID,93.913,VALID,0,VALID,22.082,VALID,48,VALID,0.946094,
2009-06-29, 02:25:04,VALID,998.935,VALID,0,VALID,93.7757,VALID,0,VALID,22.0625,VALID,48,VALID,0.709766,
2009-06-29, 02:26:04,VALID,998.964,VALID,0,VALID,93.7528,VALID,0,VALID,22.0235,VALID,48,VALID,0.229687,
2009-06-29, 02:27:04,VALID,998.978,VALID,0,VALID,93.8367,VALID,0,VALID,22.0447,VALID,48,VALID,0.00234375,
2009-06-29, 02:28:04,VALID,998.976,VALID,0,VALID,93.8443,VALID,0,VALID,22.0057,VALID,48,VALID,0.393359,
2009-06-29, 02:29:04,VALID,998.997,VALID,0,VALID,93.9435,VALID,0,VALID,22.0252,VALID,36,VALID,0.284766,
2009-06-29, 02:30:04,VALID,999.056,VALID,0,VALID,94.0045,VALID,0,VALID,22.0252,VALID,36,VALID,0.0429688,
2009-06-29, 02:31:04,VALID,999.057,VALID,0,VALID,94.0122,VALID,0,VALID,22.0235,VALID,36,VALID,0,
2009-06-29, 02:32:04,VALID,999.075,VALID,0,VALID,94.058,VALID,0,VALID,22.004,VALID,48,VALID,0.522266,
2009-06-29, 02:33:04,VALID,999.096,VALID,0,VALID,94.1724,VALID,0,VALID,22.0447,VALID,120,VALID,1.15039,
2009-06-29, 02:34:04,VALID,999.115,VALID,0,VALID,94.3555,VALID,0,VALID,22.1032,VALID,140,VALID,1.63164,
2009-06-29, 02:35:04,VALID,999.103,VALID,0,VALID,94.3403,VALID,0,VALID,22.1227,VALID,149,VALID,0.725,
2009-06-29, 02:36:04,VALID,999.089,VALID,0,VALID,94.3326,VALID,0,VALID,22.1422,VALID,149,VALID,0.684375,
2009-06-29, 02:37:04,VALID,999.078,VALID,0,VALID,94.3021,VALID,0,VALID,22.1405,VALID,149,VALID,0.762109,
2009-06-29, 02:38:04,VALID,999.069,VALID,0,VALID,94.325,VALID,0,VALID,22.1812,VALID,155,VALID,1.17969,
2009-06-29, 02:39:04,VALID,999.044,VALID,0,VALID,94.3326,VALID,0,VALID,22.2007,VALID,151,VALID,0.889453,
2009-06-29, 02:40:04,VALID,999.011,VALID,0,VALID,94.325,VALID,0,VALID,22.2202,VALID,150,VALID,0.658984,
2009-06-29, 02:41:04,VALID,999.002,VALID,0,VALID,94.2945,VALID,0,VALID,22.2381,VALID,152,VALID,0.725391,
2009-06-29, 02:42:04,VALID,998.993,VALID,0,VALID,94.325,VALID,0,VALID,22.2983,VALID,155,VALID,0.579687,
2009-06-29, 02:43:04,VALID,998.997,VALID,0,VALID,94.3403,VALID,0,VALID,22.3373,VALID,156,VALID,0.488672,
2009-06-29, 02:44:04,VALID,998.998,VALID,0,VALID,94.3097,VALID,0,VALID,22.3568,VALID,124,VALID,0.928125,
2009-06-29, 02:45:04,VALID,998.987,VALID,0,VALID,94.1343,VALID,0,VALID,22.3568,VALID,118,VALID,1.04414,
2009-06-29, 02:46:04,VALID,998.993,VALID,0,VALID,93.9893,VALID,0,VALID,22.2966,VALID,116,VALID,0.742578,
2009-06-29, 02:47:04,VALID,998.993,VALID,0,VALID,93.8748,VALID,0,VALID,22.3161,VALID,114,VALID,0.639844,
2009-06-29, 02:48:04,VALID,999.028,VALID,0,VALID,93.8825,VALID,0,VALID,22.2966,VALID,105,VALID,1.01055,
2009-06-29, 02:49:04,VALID,999.028,VALID,0,VALID,93.8901,VALID,0,VALID,22.2966,VALID,94,VALID,1.03984,
2009-06-29, 02:50:04,VALID,999.035,VALID,0,VALID,93.9359,VALID,0,VALID,22.3373,VALID,97,VALID,0.860547,
2009-06-29, 02:51:04,VALID,999.033,VALID,0,VALID,93.9893,VALID,0,VALID,22.3373,VALID,102,VALID,0.762891,
2009-06-29, 02:52:04,VALID,999.064,VALID,0,VALID,93.9435,VALID,0,VALID,22.3161,VALID,97,VALID,0.504297,
2009-06-29, 02:53:04,VALID,999.044,VALID,0,VALID,93.913,VALID,0,VALID,22.3161,VALID,97,VALID,0.372266,
2009-06-29, 02:54:04,VALID,999.066,VALID,0,VALID,93.8443,VALID,0,VALID,22.3568,VALID,97,VALID,0.233594,
2009-06-29, 02:55:04,VALID,999.092,VALID,0,VALID,93.8138,VALID,0,VALID,22.3161,VALID,97,VALID,0.392188,
2009-06-29, 02:56:04,VALID,999.097,VALID,0,VALID,93.7375,VALID,0,VALID,22.3356,VALID,97,VALID,0.691016,
2009-06-29, 02:57:04,VALID,999.108,VALID,0,VALID,93.7146,VALID,0,VALID,22.3551,VALID,97,VALID,0.634766,
2009-06-29, 02:58:04,VALID,999.167,VALID,0,VALID,93.6612,VALID,0,VALID,22.3568,VALID,100,VALID,0.328125,
2009-06-29, 02:59:04,VALID,999.161,VALID,0,VALID,93.6231,VALID,0,VALID,22.3551,VALID,99,VALID,0.609766,
2009-06-29, 03:00:04,VALID,999.175,VALID,0,VALID,93.5239,VALID,0,VALID,22.3551,VALID,99,VALID,0.687891,
2009-06-29, 03:01:04,VALID,999.196,VALID,0,VALID,93.5163,VALID,0,VALID,22.3746,VALID,130,VALID,0.814844,
2009-06-29, 03:02:04,VALID,999.162,VALID,0,VALID,93.5315,VALID,0,VALID,22.4136,VALID,114,VALID,0.523828,
2009-06-29, 03:03:04,VALID,999.182,VALID,0,VALID,93.5086,VALID,0,VALID,22.4331,VALID,96,VALID,0.655078,
2009-06-29, 03:04:04,VALID,999.118,VALID,0,VALID,93.4323,VALID,0,VALID,22.4721,VALID,105,VALID,0.658594,
2009-06-29, 03:05:04,VALID,999.143,VALID,0,VALID,93.2721,VALID,0,VALID,22.5111,VALID,98,VALID,0.623438,
2009-06-29, 03:06:04,VALID,999.137,VALID,0,VALID,93.1043,VALID,0,VALID,22.5111,VALID,95,VALID,0.422656,
2009-06-29, 03:07:04,VALID,999.176,VALID,0,VALID,92.9745,VALID,0,VALID,22.5306,VALID,86,VALID,0.750391,
2009-06-29, 03:08:04,VALID,999.203,VALID,0,VALID,92.9364,VALID,0,VALID,22.5111,VALID,77,VALID,1.02852,
2009-06-29, 03:09:04,VALID,999.219,VALID,0,VALID,92.8601,VALID,0,VALID,22.5111,VALID,66,VALID,1.19258,
2009-06-29, 03:10:04,VALID,999.274,VALID,0,VALID,92.7762,VALID,0,VALID,22.5323,VALID,55,VALID,0.941016,
2009-06-29, 03:11:04,VALID,999.293,VALID,0,VALID,92.8143,VALID,0,VALID,22.5111,VALID,73,VALID,1.03867,
2009-06-29, 03:12:04,VALID,999.341,VALID,0,VALID,92.8754,VALID,0,VALID,22.5128,VALID,87,VALID,0.764453,
2009-06-29, 03:13:04,VALID,999.311,VALID,0,VALID,93.0203,VALID,0,VALID,22.4916,VALID,95,VALID,0.644922,
2009-06-29, 03:14:04,VALID,999.266,VALID,0,VALID,93.0585,VALID,0,VALID,22.4933,VALID,58,VALID,0.721484,
2009-06-29, 03:15:04,VALID,999.253,VALID,0,VALID,93.0508,VALID,0,VALID,22.4721,VALID,52,VALID,0.521484,
2009-06-29, 03:16:04,VALID,999.241,VALID,0,VALID,93.0127,VALID,0,VALID,22.4721,VALID,52,VALID,0.123438,
2009-06-29, 03:17:04,VALID,999.229,VALID,0,VALID,93.0127,VALID,0,VALID,22.4526,VALID,52,VALID,0.312891,
2009-06-29, 03:18:04,VALID,999.226,VALID,0,VALID,93.1043,VALID,0,VALID,22.4721,VALID,290,VALID,0.648047,
2009-06-29, 03:19:04,VALID,999.228,VALID,0,VALID,93.1653,VALID,0,VALID,22.4916,VALID,256,VALID,0.739844,
2009-06-29, 03:20:04,VALID,999.221,VALID,0,VALID,93.2416,VALID,0,VALID,22.5306,VALID,248,VALID,0.533203,
2009-06-29, 03:21:04,VALID,999.224,VALID,0,VALID,93.1958,VALID,0,VALID,22.5501,VALID,263,VALID,0.403125,
2009-06-29, 03:22:04,VALID,999.214,VALID,0,VALID,93.1271,VALID,0,VALID,22.5909,VALID,240,VALID,0.804688,
2009-06-29, 03:23:04,VALID,999.237,VALID,0,VALID,93.089,VALID,0,VALID,22.6104,VALID,240,VALID,0.464844,
2009-06-29, 03:24:04,VALID,999.198,VALID,0,VALID,92.9517,VALID,0,VALID,22.6087,VALID,240,VALID,0.146484,
2009-06-29, 03:25:04,VALID,999.191,VALID,0,VALID,92.822,VALID,0,VALID,22.6087,VALID,240,VALID,0.136328,
2009-06-29, 03:26:04,VALID,999.185,VALID,0,VALID,92.7609,VALID,0,VALID,22.6282,VALID,240,VALID,0.249609,
2009-06-29, 03:27:04,VALID,999.156,VALID,0,VALID,92.6617,VALID,0,VALID,22.6477,VALID,240,VALID,0.463672,
2009-06-29, 03:28:04,VALID,999.166,VALID,0,VALID,92.6083,VALID,0,VALID,22.6884,VALID,239,VALID,0.616406,
2009-06-29, 03:29:04,VALID,999.174,VALID,0,VALID,92.5626,VALID,0,VALID,22.7469,VALID,241,VALID,0.674609,
2009-06-29, 03:30:04,VALID,999.113,VALID,0,VALID,92.4328,VALID,0,VALID,22.7452,VALID,254,VALID,0.913281,
2009-06-29, 03:31:04,VALID,999.13,VALID,0,VALID,92.3413,VALID,0,VALID,22.7435,VALID,265,VALID,0.833594,
2009-06-29, 03:32:04,VALID,999.147,VALID,0,VALID,92.2726,VALID,0,VALID,22.7647,VALID,255,VALID,0.959375,
2009-06-29, 03:33:04,VALID,999.167,VALID,0,VALID,92.265,VALID,0,VALID,22.7647,VALID,271,VALID,1.19648,
2009-06-29, 03:34:04,VALID,999.161,VALID,0,VALID,92.2879,VALID,0,VALID,22.7647,VALID,258,VALID,0.70625,
2009-06-29, 03:35:04,VALID,999.159,VALID,0,VALID,92.2879,VALID,0,VALID,22.7664,VALID,297,VALID,0.532812,
2009-06-29, 03:36:04,VALID,999.209,VALID,0,VALID,92.2345,VALID,0,VALID,22.7062,VALID,242,VALID,0.929688,
2009-06-29, 03:37:04,VALID,999.254,VALID,0,VALID,92.3337,VALID,0,VALID,22.6672,VALID,229,VALID,0.605859,
2009-06-29, 03:38:04,VALID,999.244,VALID,0,VALID,92.4023,VALID,0,VALID,22.6689,VALID,255,VALID,0.655469,
2009-06-29, 03:39:04,VALID,999.243,VALID,0,VALID,92.4405,VALID,0,VALID,22.6282,VALID,356,VALID,0.550391,
2009-06-29, 03:40:04,VALID,999.325,VALID,0,VALID,92.5168,VALID,0,VALID,22.6087,VALID,356,VALID,0.639844,
2009-06-29, 03:41:04,VALID,999.317,VALID,0,VALID,92.6083,VALID,0,VALID,22.5892,VALID,192,VALID,0.66875,
2009-06-29, 03:42:04,VALID,999.279,VALID,0,VALID,92.6083,VALID,0,VALID,22.5892,VALID,192,VALID,0.0503906,
2009-06-29, 03:43:04,VALID,999.333,VALID,0,VALID,92.6388,VALID,0,VALID,22.5892,VALID,192,VALID,0.351953,
2009-06-29, 03:44:04,VALID,999.303,VALID,0,VALID,92.6388,VALID,0,VALID,22.5696,VALID,192,VALID,0.4625,
2009-06-29, 03:45:04,VALID,999.256,VALID,0,VALID,92.6465,VALID,0,VALID,22.5909,VALID,192,VALID,0.0714844,
2009-06-29, 03:46:04,VALID,999.304,VALID,0,VALID,92.6541,VALID,0,VALID,22.5696,VALID,192,VALID,0.394922,